TimeEDT,TemperatureF,Dew PointF,Humidity,Sea Level PressureIn,VisibilityMPH,Wind Direction,Wind SpeedMPH,Gust SpeedMPH,PrecipitationIn,Events,Conditions,WindDirDegrees,DateUTC
12:54 AM,42.1,37.9,85,30.01,-9999.0,North,-9999.0,-,N/A,,Unknown,0,2012-10-23 04:54:00
1:54 AM,43.0,39.0,86,30.02,-9999.0,North,-9999.0,-,N/A,,Unknown,0,2012-10-23 05:54:00
2:54 AM,46.0,39.9,79,30.02,-9999.0,North,-9999.0,-,N/A,,Unknown,0,2012-10-23 06:54:00
3:54 AM,43.0,39.0,86,30.03,-9999.0,North,-9999.0,-,N/A,,Unknown,0,2012-10-23 07:54:00
4:54 AM,42.1,39.0,89,30.05,-9999.0,North,-9999.0,-,N/A,,Unknown,0,2012-10-23 08:54:00
6:54 AM,39.9,37.9,93,30.09,-9999.0,North,-9999.0,-,N/A,,Unknown,0,2012-10-23 10:54:00
7:54 AM,37.9,37.0,97,30.12,-9999.0,North,-9999.0,-,N/A,,Unknown,0,2012-10-23 11:54:00
8:54 AM,41.0,37.9,89,30.12,-9999.0,North,-9999.0,-,N/A,,Unknown,0,2012-10-23 12:54:00
9:54 AM,45.0,37.9,76,30.13,-9999.0,North,-9999.0,-,N/A,,Unknown,0,2012-10-23 13:54:00
10:54 AM,48.0,36.0,63,30.12,-9999.0,North,-9999.0,-,N/A,,Unknown,0,2012-10-23 14:54:00
11:54 AM,50.0,36.0,59,30.11,-9999.0,North,-9999.0,-,N/A,,Unknown,0,2012-10-23 15:54:00
12:54 PM,52.0,34.0,50,30.09,-9999.0,North,-9999.0,-,N/A,,Unknown,0,2012-10-23 16:54:00
1:54 PM,54.0,34.0,47,30.07,-9999.0,North,-9999.0,-,N/A,,Unknown,0,2012-10-23 17:54:00
2:54 PM,55.0,33.1,43,30.06,-9999.0,North,-9999.0,-,N/A,,Unknown,0,2012-10-23 18:54:00
3:54 PM,55.0,28.0,35,30.07,-9999.0,North,-9999.0,-,N/A,,Unknown,0,2012-10-23 19:54:00
4:54 PM,53.1,28.9,40,30.07,-9999.0,North,-9999.0,-,N/A,,Unknown,0,2012-10-23 20:54:00
5:54 PM,50.0,30.9,48,30.10,-9999.0,North,-9999.0,-,N/A,,Unknown,0,2012-10-23 21:54:00
6:54 PM,44.1,34.0,68,30.12,-9999.0,North,-9999.0,-,N/A,,Unknown,0,2012-10-23 22:54:00
7:54 PM,41.0,33.1,73,30.14,-9999.0,North,-9999.0,-,N/A,,Unknown,0,2012-10-23 23:54:00
8:54 PM,37.9,33.1,83,30.17,-9999.0,North,-9999.0,-,N/A,,Unknown,0,2012-10-24 00:54:00
9:54 PM,36.0,32.0,86,30.17,-9999.0,North,-9999.0,-,N/A,,Unknown,0,2012-10-24 01:54:00
10:54 PM,34.0,32.0,92,30.17,-9999.0,North,-9999.0,-,N/A,,Unknown,0,2012-10-24 02:54:00
11:54 PM,33.1,30.9,92,30.18,-9999.0,North,-9999.0,-,N/A,,Unknown,0,2012-10-24 03:54:00